owner,sensor,date,latitude,longitude,vertical_datum,direction_of_sea_water_velocity,sea_water_speed,upward_sea_water_velocity,qcFlag 
TABS,ioos:station:wmo:42043:1,2017-03-01T00:00:00Z,28.9818,-94.9186,2.0,250.6885658,23.16322948,-99999.0,'11111222,11111222,99999999' 
TABS,ioos:station:wmo:42043:1,2017-03-01T00:30:00Z,28.9818,-94.9186,2.0,247.9048828,20.31162229,-99999.0,'11111222,11111222,99999999' 
TABS,ioos:station:wmo:42043:1,2017-03-01T01:00:00Z,28.9818,-94.9186,2.0,254.0471052,22.12191899,-99999.0,'11111222,11111222,99999999' 
TABS,ioos:station:wmo:42043:1,2017-03-01T01:30:00Z,28.9818,-94.9186,2.0,261.1550119,18.14577086,-99999.0,'11111222,11111222,99999999' 
TABS,ioos:station:wmo:42043:1,2017-03-01T02:00:00Z,28.9818,-94.9186,2.0,251.9935055,13.94287273,-99999.0,'11111222,11111222,99999999' 
TABS,ioos:station:wmo:42043:1,2017-03-01T02:30:00Z,28.9818,-94.9186,2.0,253.0615591,13.55814884,-99999.0,'11111222,11111222,99999999' 
TABS,ioos:station:wmo:42043:1,2017-03-01T03:00:00Z,28.9818,-94.9186,2.0,247.1266539,12.01473262,-99999.0,'11111222,11111222,99999999' 
TABS,ioos:station:wmo:42043:1,2017-03-01T03:30:00Z,28.9818,-94.9186,2.0,247.4282991,12.71385071,-99999.0,'11111222,11111222,99999999' 
TABS,ioos:station:wmo:42043:1,2017-03-01T04:00:00Z,28.9818,-94.9186,2.0,243.5705404,16.96285943,-99999.0,'11111222,11111222,99999999' 
TABS,ioos:station:wmo:42043:1,2017-03-01T04:30:00Z,28.9818,-94.9186,2.0,249.8844636,50.042424,-99999.0,'11111222,11111222,99999999' 
TABS,ioos:station:wmo:42043:1,2017-03-01T05:00:00Z,28.9818,-94.9186,2.0,248.3956246,48.50762414,-99999.0,'11111222,11111222,99999999' 
TABS,ioos:station:wmo:42043:1,2017-03-01T05:30:00Z,28.9818,-94.9186,2.0,256.5377918,48.62598585,-99999.0,'11111222,11111222,99999999' 
TABS,ioos:station:wmo:42043:1,2017-03-01T06:00:00Z,28.9818,-94.9186,2.0,250.800381,48.83623655,-99999.0,'11111222,11111222,99999999' 
TABS,ioos:station:wmo:42043:1,2017-03-01T06:30:00Z,28.9818,-94.9186,2.0,253.2655691,47.30321765,-99999.0,'11111222,11111222,99999999' 
TABS,ioos:station:wmo:42043:1,2017-03-01T07:00:00Z,28.9818,-94.9186,2.0,254.3691795,42.97939623,-99999.0,'11111222,11111222,99999999' 
TABS,ioos:station:wmo:42043:1,2017-03-01T07:30:00Z,28.9818,-94.9186,2.0,255.2906886,44.62235426,-99999.0,'11111222,11111222,99999999' 
TABS,ioos:station:wmo:42043:1,2017-03-01T08:00:00Z,28.9818,-94.9186,2.0,250.7556632,41.65767396,-99999.0,'11111222,11111222,99999999' 
TABS,ioos:station:wmo:42043:1,2017-03-01T08:30:00Z,28.9818,-94.9186,2.0,257.3635146,38.81001159,-99999.0,'11111222,11111222,99999999' 
TABS,ioos:station:wmo:42043:1,2017-03-01T09:00:00Z,28.9818,-94.9186,2.0,253.4009758,39.2766852,-99999.0,'11111222,11111222,99999999' 
TABS,ioos:station:wmo:42043:1,2017-03-01T09:30:00Z,28.9818,-94.9186,2.0,250.8329808,36.15410627,-99999.0,'11111222,11111222,99999999' 
TABS,ioos:station:wmo:42043:1,2017-03-01T10:00:00Z,28.9818,-94.9186,2.0,246.8640846,32.22130506,-99999.0,'11111222,11111222,99999999' 
TABS,ioos:station:wmo:42043:1,2017-03-01T10:30:00Z,28.9818,-94.9186,2.0,243.9726358,32.38416434,-99999.0,'11111222,11111222,99999999' 
TABS,ioos:station:wmo:42043:1,2017-03-01T11:00:00Z,28.9818,-94.9186,2.0,239.0234461,31.57289027,-99999.0,'11111222,11111222,99999999' 
TABS,ioos:station:wmo:42043:1,2017-03-01T11:30:00Z,28.9818,-94.9186,2.0,229.6807608,33.01179335,-99999.0,'11111222,11111222,99999999' 
TABS,ioos:station:wmo:42043:1,2017-03-01T12:00:00Z,28.9818,-94.9186,2.0,228.6777409,33.28844244,-99999.0,'11111222,11111222,99999999' 
TABS,ioos:station:wmo:42043:1,2017-03-01T12:30:00Z,28.9818,-94.9186,2.0,222.2755475,35.55815659,-99999.0,'11111222,11111222,99999999' 
TABS,ioos:station:wmo:42043:1,2017-03-01T13:00:00Z,28.9818,-94.9186,2.0,222.6226583,37.84863802,-99999.0,'11111222,11111222,99999999' 
TABS,ioos:station:wmo:42043:1,2017-03-01T13:30:00Z,28.9818,-94.9186,2.0,224.2251976,40.80378904,-99999.0,'11111222,11111222,99999999' 
TABS,ioos:station:wmo:42043:1,2017-03-01T14:00:00Z,28.9818,-94.9186,2.0,215.9305896,42.34768707,-99999.0,'11111222,11111222,99999999' 
TABS,ioos:station:wmo:42043:1,2017-03-01T14:30:00Z,28.9818,-94.9186,2.0,216.5874268,41.42250234,-99999.0,'11111222,11111222,99999999' 
TABS,ioos:station:wmo:42043:1,2017-03-01T15:00:00Z,28.9818,-94.9186,2.0,214.6287867,43.32513012,-99999.0,'11111222,11111222,99999999' 
TABS,ioos:station:wmo:42043:1,2017-03-01T15:30:00Z,28.9818,-94.9186,2.0,214.4709512,43.53414407,-99999.0,'11111222,11111222,99999999' 
TABS,ioos:station:wmo:42043:1,2017-03-01T16:00:00Z,28.9818,-94.9186,2.0,211.8949194,44.09811334,-99999.0,'11111222,11111222,99999999' 
TABS,ioos:station:wmo:42043:1,2017-03-01T16:30:00Z,28.9818,-94.9186,2.0,209.9059402,45.80993015,-99999.0,'11111222,11111222,99999999' 
TABS,ioos:station:wmo:42043:1,2017-03-01T17:00:00Z,28.9818,-94.9186,2.0,207.3730631,47.87003447,-99999.0,'11111222,11111222,99999999' 
TABS,ioos:station:wmo:42043:1,2017-03-01T17:30:00Z,28.9818,-94.9186,2.0,208.0413963,47.03118327,-99999.0,'11111222,11111222,99999999' 
TABS,ioos:station:wmo:42043:1,2017-03-01T18:00:00Z,28.9818,-94.9186,2.0,208.424444,47.26854028,-99999.0,'11111222,11111222,99999999' 
TABS,ioos:station:wmo:42043:1,2017-03-01T18:30:00Z,28.9818,-94.9186,2.0,207.1941288,45.60064912,-99999.0,'11111222,11111222,99999999' 
TABS,ioos:station:wmo:42043:1,2017-03-01T19:00:00Z,28.9818,-94.9186,2.0,206.7753128,42.59738255,-99999.0,'11111222,11111222,99999999' 
TABS,ioos:station:wmo:42043:1,2017-03-01T19:30:00Z,28.9818,-94.9186,2.0,210.4388162,40.64172363,-99999.0,'11111222,11111222,99999999' 
TABS,ioos:station:wmo:42043:1,2017-03-01T20:00:00Z,28.9818,-94.9186,2.0,207.0984386,41.29302241,-99999.0,'11111222,11111222,99999999' 
TABS,ioos:station:wmo:42043:1,2017-03-01T20:30:00Z,28.9818,-94.9186,2.0,206.3815588,39.15822264,-99999.0,'11111222,11111222,99999999' 
TABS,ioos:station:wmo:42043:1,2017-03-01T21:00:00Z,28.9818,-94.9186,2.0,205.6674947,41.69436413,-99999.0,'11111222,11111222,99999999' 
TABS,ioos:station:wmo:42043:1,2017-03-01T21:30:00Z,28.9818,-94.9186,2.0,205.2528939,41.60624232,-99999.0,'11111222,11111222,99999999' 
TABS,ioos:station:wmo:42043:1,2017-03-01T22:00:00Z,28.9818,-94.9186,2.0,204.0709106,41.21399034,-99999.0,'11111222,11111222,99999999' 
TABS,ioos:station:wmo:42043:1,2017-03-01T22:30:00Z,28.9818,-94.9186,2.0,203.7913357,40.85161931,-99999.0,'11111222,11111222,99999999' 
TABS,ioos:station:wmo:42043:1,2017-03-01T23:00:00Z,28.9818,-94.9186,2.0,199.1563887,44.18684872,-99999.0,'11111222,11111222,99999999' 
TABS,ioos:station:wmo:42043:1,2017-03-01T23:30:00Z,28.9818,-94.9186,2.0,195.0532008,43.85492675,-99999.0,'11111222,11111222,99999999' 
TABS,ioos:station:wmo:42043:1,2017-03-02T00:00:00Z,28.9818,-94.9186,2.0,193.711854,47.58625117,-99999.0,'11111222,11111222,99999999' 
TABS,ioos:station:wmo:42043:1,2017-03-02T00:30:00Z,28.9818,-94.9186,2.0,202.6881155,51.46234449,-99999.0,'11111222,11111222,99999999' 
TABS,ioos:station:wmo:42043:1,2017-03-02T01:00:00Z,28.9818,-94.9186,2.0,211.2533584,60.67526102,-99999.0,'11111222,11111222,99999999' 
TABS,ioos:station:wmo:42043:1,2017-03-02T01:30:00Z,28.9818,-94.9186,2.0,217.0651648,72.07241983,-99999.0,'11111222,11111222,99999999' 
TABS,ioos:station:wmo:42043:1,2017-03-02T02:00:00Z,28.9818,-94.9186,2.0,218.074343,76.76496922,-99999.0,'11111222,11111222,99999999' 
TABS,ioos:station:wmo:42043:1,2017-03-02T02:30:00Z,28.9818,-94.9186,2.0,219.7922412,78.84255196,-99999.0,'11111222,11111222,99999999' 
TABS,ioos:station:wmo:42043:1,2017-03-02T03:00:00Z,28.9818,-94.9186,2.0,219.9830495,84.17825194,-99999.0,'11111222,11111222,99999999' 
TABS,ioos:station:wmo:42043:1,2017-03-02T03:30:00Z,28.9818,-94.9186,2.0,223.7137702,83.81326148,-99999.0,'11111222,11111222,99999999' 
TABS,ioos:station:wmo:42043:1,2017-03-02T04:00:00Z,28.9818,-94.9186,2.0,223.5586492,83.79036938,-99999.0,'11111222,11111222,99999999' 
TABS,ioos:station:wmo:42043:1,2017-03-02T04:30:00Z,28.9818,-94.9186,2.0,224.0772757,79.94171001,-99999.0,'11111222,11111222,99999999' 
TABS,ioos:station:wmo:42043:1,2017-03-02T05:00:00Z,28.9818,-94.9186,2.0,224.4295219,80.29595071,-99999.0,'11111222,11111222,99999999' 
TABS,ioos:station:wmo:42043:1,2017-03-02T05:30:00Z,28.9818,-94.9186,2.0,226.9762748,84.05429793,-99999.0,'11111222,11111222,99999999' 
TABS,ioos:station:wmo:42043:1,2017-03-02T06:00:00Z,28.9818,-94.9186,2.0,228.7281974,82.53141523,-99999.0,'11111222,11111222,99999999' 
TABS,ioos:station:wmo:42043:1,2017-03-02T06:30:00Z,28.9818,-94.9186,2.0,232.2854898,80.62475302,-99999.0,'11111222,11111222,99999999' 
TABS,ioos:station:wmo:42043:1,2017-03-02T07:00:00Z,28.9818,-94.9186,2.0,234.3719569,76.94208211,-99999.0,'11111222,11111222,99999999' 
TABS,ioos:station:wmo:42043:1,2017-03-02T07:30:00Z,28.9818,-94.9186,2.0,234.3407779,79.67979731,-99999.0,'11111222,11111222,99999999' 
TABS,ioos:station:wmo:42043:1,2017-03-02T08:00:00Z,28.9818,-94.9186,2.0,236.5505077,73.87562521,-99999.0,'11111222,11111222,99999999' 
TABS,ioos:station:wmo:42043:1,2017-03-02T08:30:00Z,28.9818,-94.9186,2.0,240.7004016,75.75030363,-99999.0,'11111222,11111222,99999999' 
TABS,ioos:station:wmo:42043:1,2017-03-02T09:00:00Z,28.9818,-94.9186,2.0,239.3610122,71.32740988,-99999.0,'11111222,11111222,99999999' 
TABS,ioos:station:wmo:42043:1,2017-03-02T09:30:00Z,28.9818,-94.9186,2.0,239.3747705,78.58031115,-99999.0,'11111222,11111222,99999999' 
TABS,ioos:station:wmo:42043:1,2017-03-02T10:00:00Z,28.9818,-94.9186,2.0,239.6964294,71.40646609,-99999.0,'11111222,11111222,99999999' 
TABS,ioos:station:wmo:42043:1,2017-03-02T10:30:00Z,28.9818,-94.9186,2.0,237.1258019,65.80798812,-99999.0,'11111222,11111222,99999999' 
TABS,ioos:station:wmo:42043:1,2017-03-02T11:00:00Z,28.9818,-94.9186,2.0,238.4503656,61.25391824,-99999.0,'11111222,11111222,99999999' 
TABS,ioos:station:wmo:42043:1,2017-03-02T11:30:00Z,28.9818,-94.9186,2.0,233.2629688,60.22016274,-99999.0,'11111222,11111222,99999999' 
TABS,ioos:station:wmo:42043:1,2017-03-02T12:00:00Z,28.9818,-94.9186,2.0,232.3216523,58.42381107,-99999.0,'11111222,11111222,99999999' 
TABS,ioos:station:wmo:42043:1,2017-03-02T12:30:00Z,28.9818,-94.9186,2.0,232.7267708,58.00743487,-99999.0,'11111222,11111222,99999999' 
TABS,ioos:station:wmo:42043:1,2017-03-02T13:00:00Z,28.9818,-94.9186,2.0,232.5605124,60.99501045,-99999.0,'11111222,11111222,99999999' 
TABS,ioos:station:wmo:42043:1,2017-03-02T13:30:00Z,28.9818,-94.9186,2.0,230.1573572,67.88132659,-99999.0,'11111222,11111222,99999999' 
TABS,ioos:station:wmo:42043:1,2017-03-02T14:00:00Z,28.9818,-94.9186,2.0,229.3887957,71.32998949,-99999.0,'11111222,11111222,99999999' 
TABS,ioos:station:wmo:42043:1,2017-03-02T14:30:00Z,28.9818,-94.9186,2.0,232.4796023,59.74984686,-99999.0,'11111222,11111222,99999999' 
TABS,ioos:station:wmo:42043:1,2017-03-02T15:00:00Z,28.9818,-94.9186,2.0,233.9995276,64.95548399,-99999.0,'11111222,11111222,99999999' 
TABS,ioos:station:wmo:42043:1,2017-03-02T15:30:00Z,28.9818,-94.9186,2.0,234.5276339,64.93132372,-99999.0,'11111222,11111222,99999999' 
TABS,ioos:station:wmo:42043:1,2017-03-02T16:00:00Z,28.9818,-94.9186,2.0,231.6330273,66.53870227,-99999.0,'11111222,11111222,99999999' 
TABS,ioos:station:wmo:42043:1,2017-03-02T16:30:00Z,28.9818,-94.9186,2.0,239.0165413,55.84851744,-99999.0,'11111222,11111222,99999999' 
TABS,ioos:station:wmo:42043:1,2017-03-02T17:00:00Z,28.9818,-94.9186,2.0,238.5244716,60.1383746,-99999.0,'11111222,11111222,99999999' 
TABS,ioos:station:wmo:42043:1,2017-03-02T17:30:00Z,28.9818,-94.9186,2.0,229.9072586,57.03218214,-99999.0,'11111222,11111222,99999999' 
TABS,ioos:station:wmo:42043:1,2017-03-02T18:00:00Z,28.9818,-94.9186,2.0,231.8556923,58.28641008,-99999.0,'11111222,11111222,99999999' 
TABS,ioos:station:wmo:42043:1,2017-03-02T18:30:00Z,28.9818,-94.9186,2.0,235.2956994,49.37327415,-99999.0,'11111222,11111222,99999999' 
TABS,ioos:station:wmo:42043:1,2017-03-02T19:00:00Z,28.9818,-94.9186,2.0,240.557427,47.66597319,-99999.0,'11111222,11111222,99999999' 
TABS,ioos:station:wmo:42043:1,2017-03-02T19:30:00Z,28.9818,-94.9186,2.0,246.8437636,42.26492636,-99999.0,'11111222,11111222,99999999' 
TABS,ioos:station:wmo:42043:1,2017-03-02T20:00:00Z,28.9818,-94.9186,2.0,238.5352117,49.06418857,-99999.0,'11111222,11111222,99999999' 
TABS,ioos:station:wmo:42043:1,2017-03-02T20:30:00Z,28.9818,-94.9186,2.0,239.3923174,37.49374615,-99999.0,'11111222,11111222,99999999' 
TABS,ioos:station:wmo:42043:1,2017-03-02T21:00:00Z,28.9818,-94.9186,2.0,248.1054621,40.14552777,-99999.0,'11111222,11111222,99999999' 
TABS,ioos:station:wmo:42043:1,2017-03-02T21:30:00Z,28.9818,-94.9186,2.0,254.3045586,34.26766698,-99999.0,'11111222,11111222,99999999' 
TABS,ioos:station:wmo:42043:1,2017-03-02T22:00:00Z,28.9818,-94.9186,2.0,244.3509367,40.26778986,-99999.0,'11111222,11111222,99999999' 
TABS,ioos:station:wmo:42043:1,2017-03-02T22:30:00Z,28.9818,-94.9186,2.0,236.8997782,45.50447121,-99999.0,'11111222,11111222,99999999' 
TABS,ioos:station:wmo:42043:1,2017-03-02T23:00:00Z,28.9818,-94.9186,2.0,243.7622839,39.87868854,-99999.0,'11111222,11111222,99999999' 
TABS,ioos:station:wmo:42043:1,2017-03-02T23:30:00Z,28.9818,-94.9186,2.0,237.3870509,40.7083247,-99999.0,'11111222,11111222,99999999' 
TABS,ioos:station:wmo:42043:1,2017-03-03T00:00:00Z,28.9818,-94.9186,2.0,237.2689308,45.88568513,-99999.0,'11111222,11111222,99999999' 
TABS,ioos:station:wmo:42043:1,2017-03-03T00:30:00Z,28.9818,-94.9186,2.0,236.5016928,45.49676582,-99999.0,'11111222,11111222,99999999' 
TABS,ioos:station:wmo:42043:1,2017-03-03T01:00:00Z,28.9818,-94.9186,2.0,235.4645163,42.12296761,-99999.0,'11111222,11111222,99999999' 
TABS,ioos:station:wmo:42043:1,2017-03-03T01:30:00Z,28.9818,-94.9186,2.0,233.9339009,54.86540349,-99999.0,'11111222,11111222,99999999' 
TABS,ioos:station:wmo:42043:1,2017-03-03T02:00:00Z,28.9818,-94.9186,2.0,232.0823437,54.59512249,-99999.0,'11111222,11111222,99999999' 
TABS,ioos:station:wmo:42043:1,2017-03-03T02:30:00Z,28.9818,-94.9186,2.0,233.0884515,58.24401514,-99999.0,'11111222,11111222,99999999' 
TABS,ioos:station:wmo:42043:1,2017-03-03T03:00:00Z,28.9818,-94.9186,2.0,230.0593957,57.72686723,-99999.0,'11111222,11111222,99999999' 
TABS,ioos:station:wmo:42043:1,2017-03-03T03:30:00Z,28.9818,-94.9186,2.0,227.5224687,51.88828866,-99999.0,'11111222,11111222,99999999' 
TABS,ioos:station:wmo:42043:1,2017-03-03T04:00:00Z,28.9818,-94.9186,2.0,232.8176559,58.37686614,-99999.0,'11111222,11111222,99999999' 
TABS,ioos:station:wmo:42043:1,2017-03-03T04:30:00Z,28.9818,-94.9186,2.0,229.4775,45.55652423,-99999.0,'11111222,11111222,99999999' 
TABS,ioos:station:wmo:42043:1,2017-03-03T05:00:00Z,28.9818,-94.9186,2.0,230.06822,55.94584971,-99999.0,'11111222,11111222,99999999' 
TABS,ioos:station:wmo:42043:1,2017-03-03T05:30:00Z,28.9818,-94.9186,2.0,226.3807799,58.96862301,-99999.0,'11111222,11111222,99999999' 
TABS,ioos:station:wmo:42043:1,2017-03-03T06:00:00Z,28.9818,-94.9186,2.0,229.1274565,43.81284971,-99999.0,'11111222,11111222,99999999' 
TABS,ioos:station:wmo:42043:1,2017-03-03T06:30:00Z,28.9818,-94.9186,2.0,231.3935809,49.97094056,-99999.0,'11111222,11111222,99999999' 
TABS,ioos:station:wmo:42043:1,2017-03-03T07:00:00Z,28.9818,-94.9186,2.0,233.2002253,42.28603197,-99999.0,'11111222,11111222,99999999' 
TABS,ioos:station:wmo:42043:1,2017-03-03T07:30:00Z,28.9818,-94.9186,2.0,233.7582183,47.22684089,-99999.0,'11111222,11111222,99999999' 
TABS,ioos:station:wmo:42043:1,2017-03-03T08:00:00Z,28.9818,-94.9186,2.0,243.5392345,46.52370793,-99999.0,'11111222,11111222,99999999' 
TABS,ioos:station:wmo:42043:1,2017-03-03T08:30:00Z,28.9818,-94.9186,2.0,242.5722019,44.56988333,-99999.0,'11111222,11111222,99999999' 
TABS,ioos:station:wmo:42043:1,2017-03-03T09:00:00Z,28.9818,-94.9186,2.0,245.9039221,37.99029481,-99999.0,'11111222,11111222,99999999' 
TABS,ioos:station:wmo:42043:1,2017-03-03T09:30:00Z,28.9818,-94.9186,2.0,242.4250796,41.62863077,-99999.0,'11111222,11111222,99999999' 
TABS,ioos:station:wmo:42043:1,2017-03-03T10:00:00Z,28.9818,-94.9186,2.0,240.1852319,43.94677918,-99999.0,'11111222,11111222,99999999' 
TABS,ioos:station:wmo:42043:1,2017-03-03T10:30:00Z,28.9818,-94.9186,2.0,229.9983945,47.23051979,-99999.0,'11111222,11111222,99999999' 
TABS,ioos:station:wmo:42043:1,2017-03-03T11:00:00Z,28.9818,-94.9186,2.0,234.2763704,51.67234657,-99999.0,'11111222,11111222,99999999' 
TABS,ioos:station:wmo:42043:1,2017-03-03T11:30:00Z,28.9818,-94.9186,2.0,251.5039145,44.73044265,-99999.0,'11111222,11111222,99999999' 
TABS,ioos:station:wmo:42043:1,2017-03-03T12:00:00Z,28.9818,-94.9186,2.0,233.0212533,52.8000947,-99999.0,'11111222,11111222,99999999' 
TABS,ioos:station:wmo:42043:1,2017-03-03T12:30:00Z,28.9818,-94.9186,2.0,241.8060218,38.39537993,-99999.0,'11111222,11111222,99999999' 
TABS,ioos:station:wmo:42043:1,2017-03-03T13:00:00Z,28.9818,-94.9186,2.0,239.5984653,45.58823642,-99999.0,'11111222,11111222,99999999' 
TABS,ioos:station:wmo:42043:1,2017-03-03T13:30:00Z,28.9818,-94.9186,2.0,234.6067241,52.91958144,-99999.0,'11111222,11111222,99999999' 
TABS,ioos:station:wmo:42043:1,2017-03-03T14:00:00Z,28.9818,-94.9186,2.0,235.4052837,46.74486068,-99999.0,'11111222,11111222,99999999' 
TABS,ioos:station:wmo:42043:1,2017-03-03T14:30:00Z,28.9818,-94.9186,2.0,239.392707,51.77299682,-99999.0,'11111222,11111222,99999999' 
TABS,ioos:station:wmo:42043:1,2017-03-03T15:00:00Z,28.9818,-94.9186,2.0,235.0695666,53.05840555,-99999.0,'11111222,11111222,99999999' 
TABS,ioos:station:wmo:42043:1,2017-03-03T15:30:00Z,28.9818,-94.9186,2.0,239.2880442,47.93260373,-99999.0,'11111222,11111222,99999999' 
TABS,ioos:station:wmo:42043:1,2017-03-03T16:00:00Z,28.9818,-94.9186,2.0,241.93394,49.69352976,-99999.0,'11111222,11111222,99999999' 
TABS,ioos:station:wmo:42043:1,2017-03-03T16:30:00Z,28.9818,-94.9186,2.0,240.3803954,54.30625839,-99999.0,'11111222,11111222,99999999' 
TABS,ioos:station:wmo:42043:1,2017-03-03T17:00:00Z,28.9818,-94.9186,2.0,240.1913745,49.32616344,-99999.0,'11111222,11111222,99999999' 
TABS,ioos:station:wmo:42043:1,2017-03-27T15:00:00Z,28.9818,-94.9186,2.0,235.2872975,23.16241999,-99999.0,'11111222,11111222,99999999' 
TABS,ioos:station:wmo:42043:1,2017-03-27T15:30:00Z,28.9818,-94.9186,2.0,241.4408559,23.00965232,-99999.0,'11111222,11111222,99999999' 
TABS,ioos:station:wmo:42043:1,2017-03-27T17:00:00Z,28.9818,-94.9186,2.0,261.988154,19.80327498,-99999.0,'11111222,11111222,99999999' 
TABS,ioos:station:wmo:42043:1,2017-03-27T17:30:00Z,28.9818,-94.9186,2.0,267.1472309,17.08116214,-99999.0,'11111222,11111222,99999999' 
TABS,ioos:station:wmo:42043:1,2017-03-27T18:00:00Z,28.9818,-94.9186,2.0,269.8674094,17.34004614,-99999.0,'11111222,11111222,99999999' 
TABS,ioos:station:wmo:42043:1,2017-03-27T18:30:00Z,28.9818,-94.9186,2.0,276.2329203,17.04071888,-99999.0,'11111222,11111222,99999999' 
TABS,ioos:station:wmo:42043:1,2017-03-27T19:00:00Z,28.9818,-94.9186,2.0,276.5713387,15.90447736,-99999.0,'11111222,11111222,99999999' 
TABS,ioos:station:wmo:42043:1,2017-03-27T19:30:00Z,28.9818,-94.9186,2.0,268.8435458,13.38272394,-99999.0,'11111222,11111222,99999999' 
TABS,ioos:station:wmo:42043:1,2017-03-27T20:00:00Z,28.9818,-94.9186,2.0,264.4112407,11.19319883,-99999.0,'11111222,11111222,99999999' 
TABS,ioos:station:wmo:42043:1,2017-03-27T20:30:00Z,28.9818,-94.9186,2.0,250.4951937,11.35139199,-99999.0,'11111222,11111222,99999999' 
TABS,ioos:station:wmo:42043:1,2017-03-27T21:00:00Z,28.9818,-94.9186,2.0,256.3547929,11.36063379,-99999.0,'11111222,11111222,99999999' 
TABS,ioos:station:wmo:42043:1,2017-03-27T21:30:00Z,28.9818,-94.9186,2.0,258.031434,8.535537476,-99999.0,'11133222,11111222,99999999' 
TABS,ioos:station:wmo:42043:1,2017-03-27T22:00:00Z,28.9818,-94.9186,2.0,253.0646143,9.543861902,-99999.0,'11133222,11111222,99999999' 
TABS,ioos:station:wmo:42043:1,2017-03-27T22:30:00Z,28.9818,-94.9186,2.0,239.9850851,11.59489543,-99999.0,'11111222,11111222,99999999' 
TABS,ioos:station:wmo:42043:1,2017-03-27T23:00:00Z,28.9818,-94.9186,2.0,245.1166681,14.47359665,-99999.0,'11111222,11111222,99999999' 
TABS,ioos:station:wmo:42043:1,2017-03-27T23:30:00Z,28.9818,-94.9186,2.0,240.5189224,13.45170993,-99999.0,'11111222,11111222,99999999' 
TABS,ioos:station:wmo:42043:1,2017-03-28T00:00:00Z,28.9818,-94.9186,2.0,239.2145026,10.45288955,-99999.0,'11111222,11111222,99999999' 
TABS,ioos:station:wmo:42043:1,2017-03-28T00:30:00Z,28.9818,-94.9186,2.0,235.4016823,8.576741806,-99999.0,'11133222,11111222,99999999' 
TABS,ioos:station:wmo:42043:1,2017-03-28T01:00:00Z,28.9818,-94.9186,2.0,240.9633346,9.127173714,-99999.0,'11133222,11111222,99999999' 
TABS,ioos:station:wmo:42043:1,2017-03-28T01:30:00Z,28.9818,-94.9186,2.0,240.9450429,9.677892333,-99999.0,'11133222,11111222,99999999' 
TABS,ioos:station:wmo:42043:1,2017-03-28T15:30:00Z,28.9818,-94.9186,2.0,344.1917042,3.450507209,-99999.0,'11133222,11111222,99999999' 
TABS,ioos:station:wmo:42043:1,2017-03-28T16:00:00Z,28.9818,-94.9186,2.0,1.465252863,7.822557127,-99999.0,'11133222,11111222,99999999' 
TABS,ioos:station:wmo:42043:1,2017-03-28T16:30:00Z,28.9818,-94.9186,2.0,349.4984093,8.065097644,-99999.0,'11133222,11111222,99999999' 
TABS,ioos:station:wmo:42043:1,2017-03-28T17:00:00Z,28.9818,-94.9186,2.0,336.1627158,10.24385181,-99999.0,'11111222,11111222,99999999' 
TABS,ioos:station:wmo:42043:1,2017-03-28T17:30:00Z,28.9818,-94.9186,2.0,358.1581713,9.955144399,-99999.0,'11133222,11111222,99999999' 
TABS,ioos:station:wmo:42043:1,2017-03-28T18:00:00Z,28.9818,-94.9186,2.0,344.0172727,12.56574709,-99999.0,'11111222,11111222,99999999' 
TABS,ioos:station:wmo:42043:1,2017-03-28T18:30:00Z,28.9818,-94.9186,2.0,345.8693224,26.4194417,-99999.0,'11111222,11111222,99999999' 
TABS,ioos:station:wmo:42043:1,2017-03-28T19:00:00Z,28.9818,-94.9186,2.0,338.948867,26.6699925,-99999.0,'11111222,11111222,99999999' 
TABS,ioos:station:wmo:42043:1,2017-03-28T19:30:00Z,28.9818,-94.9186,2.0,343.072737,24.52246317,-99999.0,'11111222,11111222,99999999' 
TABS,ioos:station:wmo:42043:1,2017-03-28T20:00:00Z,28.9818,-94.9186,2.0,330.5349334,22.62668557,-99999.0,'11111222,11111222,99999999' 
TABS,ioos:station:wmo:42043:1,2017-03-28T20:30:00Z,28.9818,-94.9186,2.0,330.4296182,18.76406139,-99999.0,'11111222,11111222,99999999' 
TABS,ioos:station:wmo:42043:1,2017-03-28T21:00:00Z,28.9818,-94.9186,2.0,330.5910247,17.57478307,-99999.0,'11111222,11111222,99999999' 
TABS,ioos:station:wmo:42043:1,2017-03-28T21:30:00Z,28.9818,-94.9186,2.0,323.2045637,16.99601424,-99999.0,'11111222,11111222,99999999' 
TABS,ioos:station:wmo:42043:1,2017-03-28T22:00:00Z,28.9818,-94.9186,2.0,320.5705626,15.22519294,-99999.0,'11111222,11111222,99999999' 
TABS,ioos:station:wmo:42043:1,2017-03-28T22:30:00Z,28.9818,-94.9186,2.0,310.8641021,12.54847401,-99999.0,'11111222,11111222,99999999' 
TABS,ioos:station:wmo:42043:1,2017-03-28T23:00:00Z,28.9818,-94.9186,2.0,283.3867832,13.04440493,-99999.0,'11111222,11111222,99999999' 
TABS,ioos:station:wmo:42043:1,2017-03-28T23:30:00Z,28.9818,-94.9186,2.0,260.1522229,11.98660085,-99999.0,'11111222,11111222,99999999' 
TABS,ioos:station:wmo:42043:1,2017-03-29T00:00:00Z,28.9818,-94.9186,2.0,249.494886,18.2993907,-99999.0,'11111222,11111222,99999999' 
TABS,ioos:station:wmo:42043:1,2017-03-29T00:30:00Z,28.9818,-94.9186,2.0,270.2639988,17.39018401,-99999.0,'11111222,11111222,99999999' 
TABS,ioos:station:wmo:42043:1,2017-03-29T01:00:00Z,28.9818,-94.9186,2.0,269.2662859,17.97147184,-99999.0,'11111222,11111222,99999999' 
TABS,ioos:station:wmo:42043:1,2017-03-29T01:30:00Z,28.9818,-94.9186,2.0,264.7781006,17.25158833,-99999.0,'11111222,11111222,99999999' 
 
DISCLAIMER: The Gulf of Mexico Coastal and Ocean Observing (GCOOS) Data Portal aggregates data from the regional data providers for the convenience of all data users. Data published on this website should not be used for navigation or certain other uses as we cannot guarantee data accuracy or availability. The data and delivery services are provided 'as is' without warranty of any kind. Data Source: Gulf of Mexico Coastal Ocean Observing System Data Portal (http://data.gcoos.org/) 
